QPF
0.04 0.09 0.21 0.20 0.16 0.13 0.12 0.10 0.08 0.06 0.04 0.03 0.03 0.03 0.03 0.03 0.02 0.03 0.03 0.03 0.03 0.04 0.04 0.03 0.03 0.03 0.04 0.03 0.02 0.03 0.04 0.04 0.03 0.03 0.03 0.02 0.03 0.03 0.03 0.03 0.02 0.02 0.03
0.04 0.10 0.19 0.18 0.15 0.11 0.09 0.08 0.07 0.04 0.02 0.03 0.02 0.03 0.02 0.02 0.03 0.02 0.02 0.02 0.03 0.03 0.03 0.03 0.03 0.05 0.05 0.04 0.03 0.02 0.02 0.03 0.01 0.02 0.03 0.02 0.02 0.02 0.03 0.04 0.04 0.04 0.06
0.04 0.08 0.14 0.16 0.11 0.10 0.09 0.08 0.05 0.05 0.03 0.03 0.02 0.02 0.02 0.02 0.03 0.02 0.01 0.01 0.02 0.03 0.03 0.03 0.04 0.04 0.04 0.03 0.03 0.03 0.02 0.03 0.02 0.01 0.02 0.01 0.01 0.03 0.03 0.04 0.06 0.08 0.09
0.05 0.06 0.07 0.12 0.10 0.08 0.06 0.06 0.06 0.05 0.03 0.02 0.01 0.01 0.01 0.01 0.01 0.01 0.01 0.02 0.02 0.02 0.02 0.02 0.03 0.03 0.02 0.02 0.02 0.03 0.03 0.03 0.03 0.01 0.00 0.01 0.01 0.02 0.02 0.02 0.04 0.06 0.06
0.03 0.04 0.09 0.12 0.08 0.06 0.04 0.04 0.04 0.03 0.02 0.02 0.01 0.01 0.01 0.01 0.01 0.01 0.01 0.01 0.01 0.01 0.01 0.01 0.02 0.02 0.01 0.01 0.01 0.03 0.03 0.03 0.02 0.00 0.00 0.00 0.01 0.02 0.02 0.02 0.03 0.03 0.04
0.02 0.03 0.07 0.09 0.06 0.05 0.05 0.03 0.02 0.02 0.02 0.01 0.01 0.01 0.01 0.01 0.01 0.01 0.01 0.00 0.00 0.00 0.00 0.00 0.01 0.02 0.02 0.01 0.02 0.03 0.03 0.03 0.02 0.00 0.00 0.00 0.02 0.03 0.02 0.03 0.03 0.03 0.04
0.01 0.04 0.06 0.07 0.05 0.04 0.03 0.02 0.01 0.02 0.02 0.01 0.01 0.01 0.01 0.01 0.01 0.01 0.01 0.01 0.00 0.00 0.01 0.01 0.01 0.01 0.01 0.02 0.02 0.04 0.04 0.04 0.02 0.01 0.01 0.01 0.03 0.03 0.03 0.03 0.05 0.04 0.06
0.02 0.03 0.03 0.06 0.06 0.03 0.01 0.01 0.01 0.01 0.01 0.01 0.00 0.01 0.01 0.01 0.01 0.01 0.01 0.00 0.00 0.01 0.01 0.01 0.01 0.02 0.02 0.02 0.02 0.03 0.04 0.04 0.01 0.00 0.01 0.03 0.05 0.04 0.03 0.02 0.03 0.03 0.05
0.02 0.01 0.01 0.01 0.02 0.01 0.01 0.01 0.01 0.01 0.01 0.01 0.00 0.00 0.00 0.00 0.01 0.01 0.01 0.01 0.01 0.01 0.01 0.02 0.02 0.02 0.02 0.01 0.01 0.02 0.02 0.02 0.01 0.01 0.02 0.03 0.05 0.05 0.04 0.03 0.02 0.02 0.03
0.02 0.01 0.01 0.00 0.00 0.00 0.00 0.00 0.01 0.01 0.01 0.00 0.00 0.00 0.00 0.00 0.00 0.01 0.01 0.01 0.01 0.01 0.01 0.02 0.01 0.01 0.01 0.01 0.02 0.02 0.02 0.01 0.00 0.00 0.01 0.04 0.06 0.04 0.05 0.05 0.03 0.02 0.03
0.00 0.01 0.01 0.00 0.00 0.00 0.00 0.01 0.00 0.00 0.00 0.00 0.00 0.00 0.00 0.00 0.00 0.00 0.00 0.01 0.01 0.02 0.01 0.01 0.01 0.01 0.00 0.01 0.02 0.02 0.01 0.00 0.00 0.00 0.01 0.05 0.05 0.04 0.04 0.05 0.03 0.03 0.03
0.00 0.00 0.01 0.01 0.00 0.00 0.00 0.00 0.00 0.00 0.00 0.00 0.00 0.00 0.00 0.00 0.00 0.00 0.00 0.00 0.01 0.01 0.02 0.02 0.02 0.00 0.00 0.00 0.01 0.01 0.00 0.00 0.00 0.00 0.02 0.06 0.05 0.05 0.04 0.04 0.03 0.03 0.04
0.01 0.01 0.00 0.00 0.00 0.00 0.00 0.00 0.00 0.00 0.00 0.00 0.00 0.00 0.00 0.00 0.00 0.00 0.00 0.00 0.00 0.00 0.00 0.01 0.01 0.00 0.00 0.00 0.00 0.00 0.00 0.00 0.00 0.00 0.02 0.07 0.08 0.08 0.06 0.05 0.04 0.05 0.06
0.01 0.01 0.01 0.00 0.00 0.00 0.00 0.00 0.00 0.00 0.00 0.00 0.00 0.00 0.00 0.00 0.00 0.00 0.00 0.00 0.00 0.00 0.00 0.00 0.00 0.00 0.00 0.00 0.00 0.00 0.00 0.00 0.00 0.00 0.02 0.06 0.09 0.11 0.09 0.07 0.08 0.07 0.06
0.03 0.03 0.01 0.00 0.00 0.00 0.00 0.00 0.00 0.00 0.00 0.00 0.00 0.00 0.00 0.00 0.00 0.00 0.00 0.00 0.00 0.00 0.00 0.00 0.00 0.00 0.00 0.00 0.01 0.00 0.00 0.01 0.01 0.00 0.01 0.04 0.07 0.10 0.12 0.12 0.13 0.11 0.08
0.08 0.04 0.01 0.00 0.00 0.00 0.00 0.00 0.00 0.00 0.00 0.00 0.00 0.00 0.00 0.00 0.00 0.00 0.00 0.00 0.00 0.00 0.00 0.00 0.00 0.01 0.01 0.01 0.01 0.00 0.00 0.00 0.00 0.00 0.01 0.03 0.05 0.07 0.09 0.12 0.14 0.16 0.13
0.07 0.03 0.00 0.00 0.00 0.00 0.00 0.00 0.00 0.00 0.00 0.00 0.00 0.00 0.00 0.00 0.00 0.00 0.00 0.00 0.00 0.00 0.00 0.00 0.00 0.01 0.01 0.01 0.00 0.01 0.01 0.01 0.01 0.01 0.01 0.02 0.02 0.03 0.04 0.07 0.10 0.13 0.13
0.03 0.01 0.00 0.00 0.00 0.00 0.00 0.00 0.00 0.00 0.00 0.00 0.00 0.00 0.00 0.00 0.00 0.00 0.00 0.00 0.00 0.00 0.00 0.00 0.00 0.00 0.00 0.00 0.00 0.01 0.00 0.01 0.02 0.00 0.00 0.00 0.00 0.01 0.01 0.03 0.05 0.07 0.09
0.01 0.00 0.00 0.00 0.00 0.00 0.00 0.00 0.00 0.00 0.00 0.00 0.00 0.00 0.00 0.00 0.00 0.00 0.00 0.00 0.00 0.00 0.00 0.00 0.00 0.00 0.00 0.00 0.01 0.01 0.00 0.00 0.02 0.01 0.01 0.01 0.00 0.00 0.00 0.01 0.03 0.05 0.07
0.00 0.00 0.00 0.00 0.00 0.00 0.00 0.00 0.00 0.00 0.00 0.00 0.00 0.00 0.00 0.00 0.00 0.00 0.00 0.00 0.00 0.00 0.00 0.00 0.00 0.00 0.01 0.01 0.00 0.01 0.00 0.01 0.02 0.01 0.01 0.01 0.01 0.00 0.00 0.01 0.01 0.03 0.04
0.00 0.00 0.00 0.00 0.00 0.00 0.00 0.00 0.00 0.00 0.00 0.00 0.00 0.00 0.00 0.00 0.00 0.00 0.00 0.00 0.00 0.00 0.00 0.00 0.00 0.00 0.01 0.01 0.01 0.01 0.01 0.02 0.03 0.03 0.04 0.03 0.02 0.01 0.01 0.01 0.01 0.03 0.02
0.00 0.00 0.00 0.00 0.00 0.00 0.00 0.00 0.00 0.00 0.00 0.00 0.00 0.00 0.00 0.00 0.00 0.00 0.00 0.00 0.00 0.00 0.00 0.00 0.00 0.00 0.00 0.00 0.00 0.01 0.01 0.01 0.02 0.03 0.04 0.04 0.04 0.03 0.01 0.01 0.01 0.02 0.02
0.00 0.00 0.00 0.00 0.00 0.00 0.00 0.00 0.00 0.00 0.00 0.00 0.00 0.00 0.00 0.00 0.00 0.00 0.00 0.00 0.00 0.00 0.00 0.00 0.00 0.00 0.00 0.00 0.00 0.01 0.00 0.00 0.01 0.01 0.03 0.04 0.03 0.03 0.02 0.02 0.02 0.02 0.02
0.00 0.00 0.00 0.00 0.00 0.00 0.00 0.00 0.00 0.00 0.00 0.00 0.00 0.00 0.00 0.00 0.00 0.00 0.00 0.01 0.00 0.00 0.00 0.00 0.00 0.00 0.00 0.01 0.01 0.01 0.00 0.01 0.02 0.02 0.02 0.02 0.01 0.02 0.02 0.03 0.02 0.01 0.01
0.00 0.00 0.00 0.00 0.00 0.00 0.00 0.00 0.00 0.00 0.00 0.00 0.00 0.00 0.00 0.00 0.00 0.00 0.00 0.01 0.01 0.00 0.00 0.00 0.00 0.00 0.00 0.01 0.00 0.00 0.00 0.01 0.02 0.03 0.02 0.01 0.01 0.01 0.02 0.03 0.02 0.01 0.01
0.01 0.01 0.00 0.00 0.00 0.00 0.00 0.00 0.00 0.00 0.00 0.00 0.00 0.00 0.00 0.00 0.00 0.00 0.00 0.01 0.01 0.01 0.01 0.01 0.01 0.00 0.00 0.00 0.00 0.00 0.01 0.01 0.02 0.03 0.03 0.02 0.01 0.02 0.02 0.03 0.02 0.01 0.01
MSLP
1014.97 1014.41 1013.95 1013.67 1013.57 1013.62 1013.80 1014.02 1014.24 1014.39 1014.45 1014.43 1014.36 1014.27 1014.21 1014.21 1014.27 1014.38 1014.50 1014.60 1014.65 1014.63 1014.56 1014.44 1014.32 1014.22 1014.15 1014.13 1014.12 1014.13 1014.11 1014.07 1013.99 1013.89 1013.77 1013.67 1013.58 1013.52 1013.48 1013.45 1013.43 1013.40 1013.37
1015.08 1014.59 1014.21 1013.98 1013.91 1013.97 1014.14 1014.34 1014.53 1014.66 1014.71 1014.68 1014.61 1014.54 1014.50 1014.52 1014.59 1014.71 1014.83 1014.92 1014.95 1014.92 1014.82 1014.68 1014.53 1014.39 1014.29 1014.22 1014.18 1014.16 1014.12 1014.07 1014.00 1013.91 1013.81 1013.72 1013.64 1013.57 1013.53 1013.49 1013.45 1013.41 1013.38
1015.13 1014.73 1014.42 1014.25 1014.22 1014.31 1014.49 1014.69 1014.87 1014.99 1015.03 1015.00 1014.94 1014.87 1014.84 1014.85 1014.91 1015.00 1015.09 1015.15 1015.16 1015.10 1014.98 1014.82 1014.65 1014.49 1014.37 1014.28 1014.21 1014.17 1014.13 1014.08 1014.02 1013.95 1013.87 1013.80 1013.73 1013.68 1013.63 1013.59 1013.55 1013.51 1013.46
1015.17 1014.85 1014.62 1014.51 1014.53 1014.66 1014.85 1015.06 1015.24 1015.36 1015.40 1015.38 1015.31 1015.23 1015.18 1015.16 1015.18 1015.23 1015.27 1015.28 1015.24 1015.16 1015.02 1014.86 1014.69 1014.53 1014.40 1014.31 1014.24 1014.19 1014.15 1014.11 1014.07 1014.02 1013.97 1013.92 1013.88 1013.84 1013.80 1013.77 1013.72 1013.67 1013.60
1015.26 1015.01 1014.84 1014.79 1014.86 1015.02 1015.23 1015.44 1015.62 1015.74 1015.77 1015.74 1015.67 1015.57 1015.49 1015.43 1015.39 1015.37 1015.35 1015.30 1015.22 1015.11 1014.97 1014.81 1014.66 1014.52 1014.42 1014.34 1014.29 1014.25 1014.22 1014.20 1014.17 1014.14 1014.10 1014.08 1014.05 1014.03 1014.00 1013.97 1013.92 1013.84 1013.74
1015.46 1015.26 1015.14 1015.14 1015.23 1015.40 1015.61 1015.82 1015.99 1016.08 1016.11 1016.06 1015.97 1015.86 1015.74 1015.64 1015.54 1015.45 1015.36 1015.26 1015.14 1015.00 1014.86 1014.71 1014.59 1014.49 1014.42 1014.38 1014.36 1014.34 1014.34 1014.32 1014.31 1014.29 1014.27 1014.25 1014.24 1014.22 1014.20 1014.15 1014.09 1013.98 1013.82
1015.80 1015.64 1015.55 1015.57 1015.67 1015.83 1016.01 1016.19 1016.31 1016.38 1016.38 1016.32 1016.21 1016.08 1015.94 1015.80 1015.66 1015.51 1015.36 1015.20 1015.04 1014.88 1014.73 1014.61 1014.52 1014.46 1014.44 1014.44 1014.45 1014.47 1014.48 1014.48 1014.47 1014.46 1014.44 1014.43 1014.41 1014.39 1014.36 1014.30 1014.21 1014.06 1013.84
1016.27 1016.13 1016.06 1016.08 1016.16 1016.29 1016.42 1016.54 1016.61 1016.63 1016.60 1016.51 1016.40 1016.27 1016.12 1015.95 1015.78 1015.60 1015.40 1015.19 1014.99 1014.80 1014.65 1014.54 1014.48 1014.46 1014.48 1014.52 1014.58 1014.62 1014.65 1014.66 1014.65 1014.63 1014.61 1014.58 1014.55 1014.52 1014.48 1014.40 1014.28 1014.09 1013.81
1016.83 1016.70 1016.64 1016.64 1016.70 1016.77 1016.84 1016.88 1016.88 1016.85 1016.78 1016.68 1016.57 1016.44 1016.30 1016.15 1015.97 1015.76 1015.52 1015.28 1015.03 1014.82 1014.65 1014.53 1014.49 1014.50 1014.55 1014.63 1014.72 1014.78 1014.83 1014.84 1014.83 1014.79 1014.75 1014.70 1014.66 1014.61 1014.55 1014.46 1014.31 1014.09 1013.76
1017.37 1017.26 1017.21 1017.21 1017.23 1017.25 1017.25 1017.22 1017.15 1017.06 1016.96 1016.86 1016.76 1016.66 1016.54 1016.41 1016.24 1016.02 1015.76 1015.48 1015.20 1014.95 1014.75 1014.62 1014.57 1014.59 1014.67 1014.77 1014.88 1014.96 1015.01 1015.02 1015.00 1014.94 1014.88 1014.81 1014.75 1014.68 1014.61 1014.51 1014.35 1014.11 1013.75
1017.81 1017.74 1017.71 1017.71 1017.72 1017.70 1017.64 1017.55 1017.43 1017.30 1017.17 1017.07 1016.99 1016.93 1016.85 1016.75 1016.59 1016.38 1016.11 1015.80 1015.49 1015.20 1014.96 1014.81 1014.75 1014.77 1014.85 1014.97 1015.08 1015.18 1015.23 1015.23 1015.19 1015.11 1015.02 1014.92 1014.84 1014.76 1014.69 1014.58 1014.43 1014.18 1013.83
1018.11 1018.08 1018.09 1018.11 1018.12 1018.08 1018.00 1017.87 1017.72 1017.56 1017.44 1017.34 1017.29 1017.26 1017.22 1017.15 1017.02 1016.82 1016.54 1016.21 1015.87 1015.55 1015.28 1015.11 1015.03 1015.04 1015.12 1015.24 1015.36 1015.45 1015.49 1015.48 1015.42 1015.31 1015.19 1015.08 1014.97 1014.88 1014.80 1014.70 1014.56 1014.34 1014.02
1018.24 1018.27 1018.33 1018.39 1018.42 1018.39 1018.31 1018.17 1018.02 1017.86 1017.74 1017.66 1017.63 1017.62 1017.62 1017.57 1017.47 1017.28 1017.00 1016.67 1016.31 1015.98 1015.69 1015.50 1015.41 1015.41 1015.49 1015.61 1015.72 1015.81 1015.84 1015.81 1015.72 1015.59 1015.44 1015.29 1015.16 1015.06 1014.97 1014.88 1014.76 1014.58 1014.30
1018.24 1018.33 1018.44 1018.55 1018.62 1018.63 1018.57 1018.46 1018.32 1018.18 1018.08 1018.01 1017.99 1018.00 1018.01 1017.98 1017.88 1017.71 1017.45 1017.13 1016.78 1016.45 1016.17 1015.98 1015.89 1015.90 1015.97 1016.09 1016.20 1016.28 1016.30 1016.25 1016.13 1015.97 1015.78 1015.60 1015.44 1015.31 1015.21 1015.13 1015.03 1014.88 1014.66
1018.19 1018.32 1018.48 1018.64 1018.76 1018.81 1018.80 1018.73 1018.63 1018.52 1018.43 1018.37 1018.36 1018.36 1018.36 1018.33 1018.24 1018.08 1017.84 1017.54 1017.23 1016.93 1016.69 1016.53 1016.46 1016.47 1016.56 1016.67 1016.78 1016.85 1016.85 1016.78 1016.64 1016.45 1016.24 1016.02 1015.82 1015.66 1015.54 1015.44 1015.35 1015.23 1015.04
1018.18 1018.33 1018.52 1018.71 1018.86 1018.97 1019.01 1018.99 1018.94 1018.86 1018.79 1018.73 1018.70 1018.68 1018.66 1018.61 1018.52 1018.37 1018.16 1017.91 1017.65 1017.41 1017.22 1017.11 1017.07 1017.12 1017.21 1017.33 1017.44 1017.50 1017.50 1017.42 1017.26 1017.05 1016.81 1016.56 1016.33 1016.14 1015.98 1015.85 1015.74 1015.61 1015.46
1018.27 1018.42 1018.61 1018.80 1018.98 1019.13 1019.22 1019.26 1019.25 1019.21 1019.15 1019.09 1019.04 1018.98 1018.92 1018.84 1018.73 1018.59 1018.42 1018.23 1018.04 1017.87 1017.75 1017.70 1017.71 1017.78 1017.90 1018.02 1018.13 1018.20 1018.20 1018.12 1017.97 1017.75 1017.50 1017.23 1016.97 1016.74 1016.54 1016.37 1016.22 1016.07 1015.90
1018.49 1018.61 1018.77 1018.95 1019.14 1019.31 1019.44 1019.54 1019.58 1019.57 1019.53 1019.46 1019.37 1019.27 1019.17 1019.05 1018.93 1018.80 1018.66 1018.52 1018.40 1018.31 1018.27 1018.27 1018.33 1018.43 1018.56 1018.70 1018.82 1018.89 1018.90 1018.85 1018.72 1018.52 1018.28 1018.02 1017.75 1017.49 1017.24 1017.02 1016.82 1016.62 1016.41
1018.80 1018.87 1018.98 1019.14 1019.32 1019.51 1019.68 1019.82 1019.91 1019.94 1019.91 1019.84 1019.73 1019.59 1019.44 1019.29 1019.15 1019.02 1018.91 1018.83 1018.77 1018.74 1018.75 1018.81 1018.90 1019.02 1019.16 1019.31 1019.44 1019.53 1019.58 1019.56 1019.48 1019.34 1019.14 1018.90 1018.64 1018.36 1018.09 1017.82 1017.56 1017.30 1017.03
1019.11 1019.14 1019.21 1019.33 1019.50 1019.70 1019.91 1020.09 1020.23 1020.31 1020.31 1020.24 1020.11 1019.94 1019.76 1019.59 1019.43 1019.31 1019.22 1019.16 1019.15 1019.17 1019.22 1019.30 1019.41 1019.53 1019.68 1019.83 1019.97 1020.10 1020.19 1020.23 1020.22 1020.15 1020.02 1019.83 1019.60 1019.34 1019.05 1018.75 1018.44 1018.12 1017.80
1019.34 1019.33 1019.37 1019.48 1019.64 1019.86 1020.11 1020.34 1020.53 1020.65 1020.69 1020.64 1020.51 1020.34 1020.14 1019.95 1019.78 1019.66 1019.58 1019.55 1019.56 1019.60 1019.66 1019.75 1019.85 1019.97 1020.10 1020.25 1020.41 1020.56 1020.71 1020.82 1020.89 1020.91 1020.87 1020.76 1020.59 1020.36 1020.08 1019.77 1019.42 1019.06 1018.68
1019.40 1019.40 1019.43 1019.54 1019.72 1019.96 1020.24 1020.52 1020.77 1020.94 1021.03 1021.01 1020.91 1020.75 1020.55 1020.36 1020.19 1020.07 1020.00 1019.97 1019.98 1020.02 1020.08 1020.15 1020.23 1020.33 1020.44 1020.58 1020.75 1020.94 1021.13 1021.32 1021.47 1021.59 1021.64 1021.62 1021.51 1021.34 1021.09 1020.79 1020.43 1020.05 1019.65
1019.26 1019.29 1019.36 1019.49 1019.70 1019.98 1020.30 1020.63 1020.92 1021.15 1021.29 1021.32 1021.26 1021.13 1020.96 1020.78 1020.63 1020.51 1020.44 1020.41 1020.42 1020.44 1020.48 1020.52 1020.57 1020.63 1020.72 1020.85 1021.02 1021.23 1021.46 1021.71 1021.94 1022.14 1022.27 1022.33 1022.30 1022.19 1021.98 1021.71 1021.37 1021.00 1020.59
1018.95 1019.05 1019.18 1019.36 1019.60 1019.91 1020.27 1020.63 1020.97 1021.25 1021.44 1021.52 1021.51 1021.43 1021.30 1021.16 1021.03 1020.93 1020.86 1020.84 1020.83 1020.84 1020.85 1020.86 1020.88 1020.91 1020.98 1021.09 1021.26 1021.47 1021.73 1022.01 1022.29 1022.55 1022.74 1022.86 1022.90 1022.83 1022.68 1022.45 1022.15 1021.80 1021.42
1018.54 1018.73 1018.93 1019.17 1019.46 1019.79 1020.17 1020.56 1020.92 1021.23 1021.46 1021.60 1021.64 1021.62 1021.54 1021.45 1021.35 1021.28 1021.24 1021.21 1021.20 1021.20 1021.19 1021.18 1021.18 1021.19 1021.24 1021.33 1021.49 1021.70 1021.96 1022.25 1022.54 1022.82 1023.05 1023.20 1023.28 1023.26 1023.15 1022.97 1022.72 1022.42 1022.08
1018.13 1018.42 1018.70 1018.99 1019.30 1019.65 1020.03 1020.41 1020.78 1021.11 1021.37 1021.55 1021.65 1021.68 1021.67 1021.63 1021.58 1021.55 1021.53 1021.52 1021.52 1021.51 1021.50 1021.49 1021.48 1021.48 1021.52 1021.60 1021.74 1021.93 1022.17 1022.44 1022.72 1022.99 1023.21 1023.38 1023.47 1023.48 1023.41 1023.27 1023.07 1022.82 1022.54
Thickness
5760 5763 5764 5765 5764 5763 5763 5762 5761 5760 5758 5757 5756 5755 5754 5753 5752 5751 5750 5749 5749 5749 5749 5749 5749 5749 5748 5748 5748 5749 5750 5751 5752 5753 5754 5755 5756 5758 5759 5761 5762 5763 5764
5762 5762 5763 5763 5762 5761 5760 5759 5759 5758 5756 5755 5754 5753 5752 5751 5750 5748 5747 5747 5747 5746 5746 5746 5746 5746 5746 5746 5746 5747 5747 5748 5749 5750 5751 5752 5754 5755 5757 5759 5760 5761 5763
5761 5761 5761 5761 5760 5759 5758 5758 5757 5755 5754 5753 5752 5751 5749 5748 5747 5746 5745 5744 5744 5744 5744 5744 5744 5744 5743 5743 5744 5744 5745 5746 5746 5747 5748 5749 5751 5753 5755 5756 5758 5759 5760
5760 5759 5759 5759 5758 5757 5756 5755 5754 5753 5751 5750 5749 5748 5747 5746 5745 5744 5743 5743 5742 5741 5741 5741 5741 5741 5741 5741 5742 5742 5743 5743 5744 5744 5745 5746 5748 5750 5752 5754 5755 5757 5759
5758 5757 5756 5756 5756 5755 5754 5753 5752 5750 5749 5748 5747 5746 5745 5744 5743 5742 5742 5741 5740 5740 5739 5739 5739 5739 5739 5739 5739 5740 5740 5741 5741 5741 5742 5744 5745 5748 5750 5751 5753 5755 5756
5755 5754 5754 5754 5753 5752 5751 5750 5749 5748 5747 5746 5745 5744 5743 5742 5741 5741 5740 5739 5738 5738 5737 5737 5737 5737 5737 5737 5737 5737 5738 5738 5738 5739 5740 5741 5743 5745 5747 5749 5751 5752 5754
5752 5752 5751 5751 5750 5749 5748 5748 5747 5746 5745 5743 5743 5742 5741 5740 5740 5739 5738 5737 5737 5736 5735 5735 5735 5735 5735 5735 5735 5735 5735 5735 5735 5736 5737 5739 5741 5743 5745 5747 5748 5750 5751
5750 5749 5749 5749 5748 5747 5746 5745 5744 5743 5742 5742 5741 5740 5739 5739 5738 5737 5736 5736 5735 5734 5734 5734 5733 5733 5733 5733 5733 5733 5732 5732 5733 5734 5735 5736 5738 5741 5743 5745 5746 5747 5749
5747 5746 5746 5745 5745 5744 5743 5742 5742 5741 5740 5739 5739 5738 5737 5737 5736 5735 5735 5734 5734 5733 5733 5732 5732 5732 5731 5731 5731 5730 5730 5730 5730 5731 5732 5734 5736 5738 5741 5742 5743 5745 5746
5744 5744 5743 5742 5742 5741 5740 5740 5740 5739 5738 5738 5737 5736 5735 5735 5734 5733 5733 5733 5732 5732 5731 5731 5730 5730 5729 5729 5729 5728 5727 5727 5727 5728 5730 5732 5734 5736 5738 5739 5741 5742 5744
5740 5741 5740 5740 5739 5738 5738 5737 5737 5737 5736 5735 5735 5734 5733 5733 5732 5731 5731 5731 5731 5730 5730 5729 5728 5728 5727 5727 5726 5725 5724 5724 5725 5726 5727 5729 5732 5734 5735 5737 5738 5739 5741
5736 5738 5738 5738 5737 5736 5736 5735 5735 5734 5734 5733 5732 5732 5731 5730 5730 5729 5729 5728 5728 5728 5728 5727 5726 5725 5724 5724 5723 5722 5722 5722 5722 5723 5724 5726 5728 5730 5732 5733 5735 5736 5738
5735 5736 5737 5736 5735 5735 5734 5733 5732 5732 5732 5731 5731 5730 5729 5728 5727 5727 5727 5726 5726 5726 5725 5724 5723 5722 5721 5721 5720 5720 5719 5719 5719 5720 5722 5723 5725 5727 5729 5730 5732 5734 5736
5733 5734 5735 5735 5734 5733 5732 5731 5730 5730 5730 5729 5728 5728 5727 5726 5725 5724 5723 5723 5723 5722 5721 5721 5720 5719 5719 5718 5717 5717 5717 5717 5717 5718 5719 5721 5722 5724 5726 5728 5729 5731 5733
5731 5732 5733 5733 5733 5732 5731 5730 5729 5728 5728 5727 5726 5726 5725 5723 5722 5722 5721 5720 5720 5719 5718 5717 5717 5716 5716 5715 5714 5714 5714 5714 5714 5715 5716 5718 5719 5721 5723 5725 5726 5728 5730
5730 5730 5731 5732 5731 5730 5729 5728 5727 5726 5726 5725 5725 5724 5723 5722 5721 5720 5719 5718 5717 5717 5716 5715 5714 5713 5712 5712 5711 5711 5711 5711 5712 5713 5713 5714 5716 5718 5720 5722 5724 5726 5728
5728 5729 5729 5730 5729 5728 5727 5726 5725 5724 5724 5723 5722 5722 5721 5720 5719 5718 5717 5715 5714 5714 5714 5713 5712 5711 5710 5709 5707 5708 5708 5708 5709 5710 5710 5711 5712 5714 5716 5718 5720 5723 5725
5728 5727 5728 5729 5727 5726 5725 5724 5723 5722 5722 5721 5720 5719 5719 5718 5717 5716 5715 5713 5712 5712 5711 5710 5708 5707 5705 5704 5703 5703 5704 5704 5705 5706 5707 5708 5709 5711 5712 5715 5717 5719 5721
5727 5726 5726 5726 5725 5724 5722 5721 5721 5720 5719 5718 5718 5717 5716 5716 5715 5714 5712 5711 5710 5710 5709 5708 5705 5704 5701 5700 5700 5699 5700 5700 5701 5703 5704 5705 5706 5707 5709 5711 5713 5715 5718
5725 5725 5724 5723 5722 5721 5720 5719 5718 5717 5716 5716 5715 5714 5714 5714 5713 5712 5710 5709 5708 5707 5705 5704 5702 5701 5699 5698 5698 5696 5696 5697 5698 5699 5700 5701 5703 5704 5706 5708 5709 5711 5714
5722 5722 5721 5720 5719 5719 5717 5715 5713 5712 5712 5712 5712 5712 5711 5711 5711 5710 5708 5707 5706 5704 5702 5702 5700 5698 5696 5696 5695 5692 5692 5693 5694 5694 5696 5697 5699 5700 5702 5704 5705 5707 5709
5720 5720 5719 5718 5718 5717 5716 5714 5712 5710 5709 5709 5709 5709 5709 5709 5708 5707 5706 5704 5703 5702 5701 5700 5699 5696 5694 5693 5692 5688 5685 5686 5688 5690 5692 5693 5694 5696 5698 5700 5701 5703 5705
5718 5718 5719 5717 5717 5716 5715 5713 5711 5709 5707 5706 5706 5705 5705 5706 5706 5705 5704 5703 5701 5701 5699 5698 5697 5696 5692 5691 5691 5689 5683 5679 5680 5684 5686 5688 5690 5692 5694 5696 5697 5699 5701
5718 5718 5717 5715 5715 5714 5713 5712 5709 5706 5703 5702 5702 5702 5703 5703 5703 5703 5702 5701 5700 5699 5698 5697 5696 5695 5693 5690 5689 5688 5687 5685 5681 5678 5681 5684 5686 5687 5689 5691 5692 5694 5697
5717 5716 5715 5714 5712 5712 5711 5710 5708 5705 5702 5701 5701 5701 5700 5701 5701 5700 5700 5699 5698 5697 5696 5695 5695 5693 5692 5690 5688 5686 5685 5683 5682 5679 5675 5678 5681 5683 5685 5686 5688 5690 5692
5715 5714 5713 5711 5710 5710 5709 5708 5707 5704 5701 5700 5699 5698 5697 5697 5697 5698 5697 5696 5695 5694 5694 5693 5692 5691 5690 5688 5687 5685 5684 5682 5680 5678 5674 5673 5674 5678 5681 5683 5684 5686 5688